www.pogodaiklimat.ru
ПОГОДА в Маунт Поконо
Время
и дата
22:18 27.11
22:28 27.11
22:53 27.11
23:00 27.11
23:53 27.11
00:16 28.11
00:53 28.11
01:22 28.11
01:53 28.11
02:53 28.11
03:03 28.11
03:53 28.11
04:14 28.11
04:53 28.11
05:14 28.11
05:53 28.11
06:15 28.11
06:53 28.11
07:53 28.11
08:53 28.11
09:09 28.11
09:53 28.11
10:53 28.11
11:14 28.11
11:23 28.11
11:53 28.11
12:53 28.11
13:53 28.11
14:53 28.11
15:08 28.11
15:51 28.11
15:53 28.11
16:53 28.11
17:28 28.11
17:53 28.11
18:34 28.11
18:53 28.11
19:16 28.11
19:53 28.11
20:53 28.11
21:53 28.11
22:53 28.11
23:53 28.11
00:53 29.11
01:53 29.11
02:53 29.11
03:53 29.11
04:53 29.11
Ветер
(напр.,м/с)
Видим. Явления Облачность Т
(С)
Тd
(С)
f
(%)
Тe
(С)
Тes
(С)
Комфортность P
(гПа)
Po
(гПа)
Тmin
(С)
Tmax
(С)
R
(мм)
R24
(мм)
S
(см)
З 7
{12}
16 км 8/8 270 м +6.7 +6.1 96 +2 +2 929.4
З 7
{11}
16 км 8/8 270 м +6.7 +6.1 96 +2 +2 929.7
З 8
{11}
16 км 10/10 270 м +6.7 +6.7 100 +1 +1 996.7 929.7
З 8
{11}
16 км 10/10 210 м +7.2 +6.1 93 +2 +2 930.1
З 7
{12}
16 км 10/10 360 м +7.2 +6.1 93 +2 +2 996.9 930.1
З 8 16 км 10/10 390 м +7.2 +6.1 93 +2 +2 930.1
З 8
{11}
16 км 10/10 390 м +7.8 +6.1 89 +3 +3 997.4 930.4 +6.7 +8.3 3.6
З 8
{11}
16 км 10/10 390 м +7.8 +6.7 93 +3 +3 930.7
З 7
{12}
16 км 10/10 360 м +7.8 +6.7 93 +3 +3 997.8 930.7
З 9
{13}
16 км 10/10 360 м +7.2 +6.7 97 +2 +2 998.0 931.0
З 11
{15}
16 км 10/10 360 м +7.8 +6.7 93 +2 +2 931.0
З 9
{14}
16 км 10/10 540 м +8.3 +6.7 90 +3 +3 998.2 931.3
З 8
{13}
16 км 10/10 420 м +7.8 +6.7 93 +3 +3 931.3
З 8
{13}
14 км 10/10 300 м +7.8 +6.7 93 +3 +3 999.0 932.0
З 8
{11}
11 км слабый дождь 10/10 270 m
[Ns]
+7.8 +7.2 96 +3 +3 932.6
СЗ 10
{14}
10 км слабый дождь, дымка 10/10 300 m
[Ns]
+5.0 +4.4 96 -2 -2 1000.5 933.2
СЗ 11
{15}
16 км 10/10 270 м +3.9 +2.8 93 -3 -3 933.5
СЗ 8
{15}
16 км 10/10 330 м +3.3 +1.7 89 -3 -3 1002.2 934.8 +3.3 +8.3 0.5 14.2
СЗ 8
{12}
16 км 8/8 540 м +2.8 +1.1 89 -4 -4 1003.3 935.8
СЗ 4
{10}
16 км 10/10 450 м +3.3 +1.7 89 -1 -1 1005.0 937.3
СЗ 7
{13}
16 км 10/10 390 м +3.3 +1.7 89 -3 -3 937.6
СЗ 8
{14}
16 км 10/10 360 м +2.8 +1.1 89 -4 -4 1006.4 938.6
СЗ 8
{12}
16 км 10/10 420 м +2.8 +1.1 89 -4 -4 1007.4 939.5
СЗ 10
{14}
16 км 10/10 480 м +3.3 +1.1 85 -4 -4 939.5
СЗ 10
{16}
16 км 10/10 420 м +3.3 +1.1 85 -4 -4 939.2
СЗ 10
{15}
16 км 10/10 360 м +3.3 +1.1 85 -4 -4 1006.7 938.9
СЗ 7
{11}
16 км 10/10 330 м +3.3 +1.1 85 -3 -3 1007.7 939.9 +2.8 +3.9
СЗ 9
{11}
16 км 10/10 330 м +2.8 +0.6 85 -4 -4 1008.9 940.8
СЗ 7
{12}
16 км 10/10 420 м +2.8 0.0 82 -3 -3 1010.3 942.1
СЗ 7
{10}
16 км 10/10 450 м +2.8 0.0 82 -3 -3 942.4
СЗ 7 16 км 10/10 420 м +2.0 0.0 87 -5 -5 943.7
СЗ 6 16 км 10/10 420 м +2.2 0.0 85 -4 -4 1011.8 943.7
СЗ 5 16 км 10/10 300 м +1.7 0.0 88 -4 -4 1013.1 944.6
СЗ 7
{11}
16 км 10/10 450 м +1.7 -1.1 82 -5 -5 945.2
СЗ 6 16 км 10/10 480 м +1.7 -1.1 82 -4 -4 1014.4 945.6
СЗ 5 16 км 10/10 390 м +1.1 -0.6 88 -5 -5 946.2
СЗ 6 16 км 10/10 390 м +1.1 -0.6 88 -5 -5 1015.3 946.5 +1.1 +3.9
СЗ 5 16 км 10/10 390 м +1.1 -0.6 88 -5 -5 946.5
СЗ 6 16 км 10/10 780 м +0.6 -1.1 88 -6 -6 1016.0 946.8
З 4 16 км 10/10 660 м +0.6 -1.1 88 -5 -5 1016.9 947.8
СЗ 6
{8}
16 км 10/10 600 м +1.1 -2.2 79 -5 -5 1017.6 948.4
СЗ 6
{12}
16 км 10/10 630 м +0.6 -3.3 75 -6 -6 1018.0 948.7
СЗ 6
{9}
16 км 10/10 600 м -0.6 -3.9 78 -7 -7 1018.4 949.0
З 3 16 км 10/10 540 м -0.6 -3.3 82 -5 -5 1018.6 949.3 -0.6 +1.1
З 3 16 км 10/10 480 м -0.6 -3.3 82 -5 -5 1020.0 950.6
СЗ 5 16 км 10/10 480 м -0.6 -3.3 82 -7 -7 1020.9 951.2
СЗ 4
{8}
16 км 10/10 510 м -0.6 -3.9 78 -6 -6 1020.7 951.2
СЗ 5 16 км 10/10 510 м -0.6 -3.9 78 -7 -7 1021.0 951.2
Местоположение метеостанции Pocono Mountains Municipal Airport: широта 41.1382 долгота -75.3797 высота над уровнем моря 575 м.
В архиве по умолчанию представлена погода в Маунт Поконо за последние 1-2 суток. Обновление информации о фактической погоде в базе происходит ежечасно! Архивные данные за месяц целиком и за предыдущие месяцы Вы можете получить, выбрав интересующий диапазон дат из раскрывающегося списка и нажав кнопку "Ввод!".
Внимание! Архив погоды МЕТАР в базе сайта по станциям, не включенным в климатический монитор, хранится не более 60 дней. Нет смысла пытаться выбрать более раннюю дату.
*Определитесь, кто Вы:
Внимание! Время в таблицах - местное (без учета летнего времени). Для получения всемирного времени необходимо вычесть поправку, которая равна -5 ч.
Смотрите также архив погоды в соседних городах и на ближайших метеорологических станциях:
Партнеры нашего сайта:      
Пояснения к столбцам:
  • Ветер - указаны скорость ветра в м/с - средняя за 10 мин, порывы в срок и между сроками (в фигурных скобках) и направление, откуда дует ветер: С - северный,
  • СВ - северо-восточный, В - восточный, ЮВ - юго-восточный, Ю - южный, ЮЗ - юго-западный, З - западный, СЗ - северо-западный.
  • Видимость - горизонтальная дальность видимости в метрах или километрах. При видимости от 1 до 10 км при отсутствии осадков обычно наблюдается дымка, при ухудшении видимости до 1 км и менее - туман. В сухую погоду видимость может ухудшаться дымом, пылью или мглою.
  • Явления - указаны атмосферные явления, наблюдавшиеся в срок или в последний час перед сроком; фигурными скобками обозначены явления, наблюдавшиеся между сроками (за 1-3 часа до срока); квадратными скобками обозначены град или гололедные отложения с указанием их диаметра в мм.
  • Облачность - указаны через наклонную черту общая и нижняя облачность в баллах и высота нижней границы облаков в метрах; квадратными скобками обозначены формы облаков: Ci - перистые, Cs - перисто-слоистые, Cc - перисто-кучевые, Ac - высококучевые, As - высокослоистые, Sc - слоисто-кучевые, Ns - слоисто-дождевые, Cu - кучевые, Cb - кучево-дождевые. Подробнее классификацию облаков см. в Атласе облаков (PDF).
  • T - Температура воздуха - температура, измеренная на высоте 2 м над землей.
  • Td - Температура точки росы - температура, при понижении до которой содержащийся в воздухе водяной пар достигнет насыщения.
  • f - Относительная влажность воздуха - влажноcть воздуха, измеренная на высоте 2 м над землей.
  • Te - Эффективная температура - температура, которую ощущает одетый по сезону человек в тени. Характеристика душности погоды. При расчете учитывается влияние влажности воздуха и скорости ветра на теплоощущения человека.
  • Tes - Эффективная температура на солнце - температура, которую ощущает человек, с поправкой на солнечный нагрев. Характеристика знойности погоды. Зависит от высоты солнца над горизонтом, облачности и скорости ветра. Ночью, в пасмурную погоду, а также при ветре 12 м/с и более поправка равна нулю.
  • P - Атмосферное давление - приведенное к уровню моря атмосферное давление.
  • Po - Атмосферное давление - измеренное на уровне метеостанции атмосферное давление.
  • Tmin - Минимальная температура - минимум температуры воздуха на высоте 2 м над землей.
  • Tmax - Максимальная температура - максимум температуры воздуха на высоте 2 м над землей.
  • R - Количество осадков - Количество выпавших осадков за период времени, мм. При наведении курсора мыши на число - период времени, за который выпало указанное количество осадков.
  • R24 - Количество осадков - Количество выпавших осадков за 24 часа, мм.
  • S - Снежный покров - Высота снежного покрова, см. При наведении курсора мыши на число - состояние снежного покрова и степень покрытия местности в баллах.